Lapse_Rate
3.5 3.2 3.3 3.4 3.5 3.6 3.8 3.7 3.7 3.5 3.7 3.8 3.7 3.3 3.0 3.4 4.9 5.6 6.9 8.9 9.5 9.5 9.7 9.5 8.9 8.3 8.2 8.1 8.9 8.8 8.5 8.9 8.1
3.3 3.1 3.2 3.6 3.9 3.9 4.1 3.9 4.0 3.9 3.5 3.4 3.5 3.2 2.6 4.4 5.4 6.1 7.9 9.4 9.4 9.5 9.5 9.4 8.8 7.9 7.6 8.6 9.1 8.6 8.6 9.0 8.8
3.2 3.4 3.4 3.7 3.9 3.9 3.9 4.1 4.3 4.2 3.8 3.3 3.2 2.9 2.8 4.7 5.6 6.5 8.9 9.1 9.3 9.4 9.4 8.4 8.0 8.0 7.9 8.1 8.2 8.2 8.7 8.5 8.4
3.4 3.5 3.7 3.8 3.9 4.0 4.1 4.2 4.3 4.1 4.0 3.5 3.0 2.7 2.6 5.0 6.0 7.7 9.2 9.1 9.4 9.2 8.0 7.4 7.7 7.6 7.7 7.7 7.6 7.8 8.0 8.0 7.9
3.3 3.3 3.3 3.4 3.6 3.8 4.1 4.3 4.6 4.2 4.1 3.5 2.8 2.7 3.5 6.0 6.8 8.1 9.0 9.2 9.2 8.0 7.6 7.5 7.9 7.8 7.8 8.4 7.9 8.2 8.4 8.4 8.5
2.6 2.6 2.8 3.3 3.4 3.4 4.1 4.8 4.4 3.7 3.4 3.0 2.7 3.8 5.4 5.1 5.3 7.7 7.7 8.0 8.0 7.4 7.8 8.0 7.2 7.2 7.5 8.1 7.9 8.3 8.5 8.7 8.6
1.8 2.2 2.5 2.8 2.9 3.0 3.7 3.8 3.1 3.2 3.5 3.3 3.3 4.5 4.9 4.5 6.7 7.7 7.8 7.6 7.4 7.6 7.3 7.3 7.3 7.7 8.3 8.0 8.4 8.4 9.1 8.6 8.7
0.9 1.2 1.3 1.6 1.6 2.2 2.7 2.8 3.2 3.3 3.7 3.4 3.9 4.7 5.8 4.8 5.0 6.6 6.9 7.6 8.0 8.0 7.9 8.0 8.0 8.0 8.3 8.4 9.2 8.4 8.8 8.9 8.9
1.0 1.5 1.2 1.5 1.4 2.1 2.4 2.8 2.8 3.0 3.2 4.0 4.0 4.8 5.7 4.3 3.7 5.3 6.5 7.4 8.2 8.3 8.2 7.9 8.5 8.6 8.1 8.5 9.4 8.8 7.6 8.7 8.6
0.7 1.0 1.2 1.2 1.3 2.3 2.1 2.9 3.0 3.4 3.5 3.8 4.4 4.4 4.9 5.5 4.6 5.1 6.2 7.1 8.0 8.4 8.7 8.5 8.6 8.6 8.7 9.5 9.0 8.6 8.4 7.8 8.7
0.8 0.9 1.1 1.2 1.6 1.9 2.9 3.2 3.2 3.2 4.0 3.9 4.1 4.2 4.5 5.1 5.6 6.0 6.7 7.1 7.6 8.2 8.6 8.9 8.7 8.6 9.4 9.3 9.2 8.9 7.9 8.3 8.9
0.6 1.1 1.2 1.1 1.2 1.8 2.2 2.4 2.9 3.5 3.8 4.2 4.1 4.2 4.5 4.7 4.8 5.3 6.0 6.5 6.6 7.2 7.7 8.0 8.5 8.6 9.3 9.3 9.2 9.3 9.3 9.5 9.2
0.7 1.1 1.3 0.6 1.2 2.0 2.7 3.2 3.5 4.1 4.7 4.6 4.6 4.5 4.4 4.6 4.6 4.7 5.1 5.4 6.0 6.3 6.1 5.7 6.8 8.5 9.3 9.3 9.3 9.3 9.3 9.3 8.9
1.2 1.3 0.7 0.8 1.3 2.0 2.7 2.6 3.9 3.9 4.1 4.5 4.4 4.6 4.9 4.7 4.6 5.1 5.1 5.2 5.5 6.0 5.1 5.1 5.8 6.8 7.4 7.6 9.0 9.3 9.2 9.4 9.4
1.0 0.9 0.6 0.7 1.5 1.9 2.2 2.9 2.7 4.0 4.6 4.9 4.6 4.7 4.4 4.4 4.8 5.0 4.9 5.1 5.4 5.8 5.4 5.6 5.7 6.0 6.3 6.1 6.0 7.2 9.2 9.1 9.4
0.9 1.0 0.9 1.0 2.0 2.3 2.6 2.2 3.2 2.9 4.1 5.0 5.2 5.2 4.7 4.8 4.8 4.6 5.0 5.1 5.0 5.3 5.4 5.4 5.3 5.1 5.0 5.6 5.3 5.9 7.9 9.3 9.2
1.1 1.2 1.5 1.4 1.4 1.4 2.0 2.6 2.2 3.1 3.4 5.2 5.2 6.6 6.3 5.6 5.0 4.9 5.2 5.0 4.7 5.0 5.0 5.2 4.9 4.7 4.8 4.7 4.8 4.8 6.0 8.7 9.2
0.8 0.8 1.0 0.9 1.4 1.3 1.7 2.4 3.0 2.9 2.3 2.9 4.9 4.9 6.6 6.1 5.3 5.0 5.0 5.1 5.2 4.9 4.9 4.8 4.7 4.6 4.7 4.7 4.9 5.1 5.5 6.8 9.2
0.4 0.5 0.8 0.9 0.9 1.0 1.5 2.0 2.8 2.9 3.1 2.1 2.4 2.3 3.7 6.0 6.5 5.4 4.8 4.7 4.9 5.0 4.7 4.7 4.5 4.6 4.6 4.2 4.4 4.9 5.7 6.6 8.9
0.5 0.4 0.4 0.7 0.6 1.5 1.5 1.2 1.9 2.9 3.0 3.2 1.9 2.4 2.7 2.8 4.6 6.2 5.3 4.6 4.0 4.1 4.6 4.5 4.7 4.4 4.5 4.7 4.5 4.9 5.6 6.8 8.4
Wind_Speed
12 12 12 11 12 12 12 14 13 14 15 14 13 13 12 12 11 10 9 10 14 14 13 13 16 15 16 15 15 16 16 16 17
12 13 13 12 13 13 14 14 13 14 15 14 13 13 12 11 12 11 9 13 13 15 16 15 16 15 15 16 17 16 16 17 17
13 13 13 14 13 13 13 13 13 15 15 15 14 13 11 11 11 12 12 13 15 16 16 16 17 17 18 18 19 19 20 18 17
15 14 15 13 12 12 12 13 14 16 15 15 14 13 11 10 8 6 13 12 16 16 15 15 20 23 22 22 22 22 21 20 21
16 14 13 12 12 12 13 14 17 16 15 15 13 11 11 10 8 10 17 16 16 15 21 23 22 21 21 21 20 20 17 18 19
13 11 11 11 12 14 13 16 18 17 16 14 12 10 9 9 6 11 14 16 15 23 23 22 21 21 21 18 18 17 18 19 19
11 11 13 13 13 15 15 17 16 13 11 11 11 9 9 11 11 13 13 15 21 22 21 21 22 21 20 17 17 18 17 17 19
9 8 8 9 10 10 12 13 11 12 11 11 10 9 11 11 13 10 16 19 19 20 20 20 20 19 17 16 16 17 17 16 18
8 8 7 8 8 10 10 11 12 12 12 12 12 11 11 11 12 18 17 19 19 20 19 20 19 18 17 14 17 16 16 14 17
9 8 8 8 8 10 10 12 11 11 11 10 12 11 11 11 9 13 20 19 18 16 17 18 18 16 14 15 16 15 14 15 17
10 8 7 8 9 9 10 11 11 9 9 9 10 10 10 11 11 11 17 20 15 13 13 16 15 14 14 16 15 15 15 20 19
11 9 8 8 9 11 11 10 11 9 9 8 8 9 8 9 11 11 11 13 16 14 14 14 13 14 15 14 15 15 15 16 17
11 9 8 10 10 11 10 8 6 6 6 6 4 7 7 7 8 8 9 9 9 12 13 12 13 12 14 14 14 15 15 15 15
12 10 10 11 10 9 9 4 5 6 6 6 4 4 5 6 7 7 6 5 5 7 13 14 13 12 13 15 14 14 14 14 14
12 11 12 12 8 6 6 7 5 6 7 6 5 4 4 4 5 5 5 4 4 5 8 9 11 11 12 13 14 12 12 12 13
13 11 11 11 8 8 8 6 8 4 6 6 4 4 3 4 4 4 4 4 4 4 6 6 7 8 11 13 13 12 10 10 13
14 13 9 10 7 9 9 9 5 3 6 3 3 4 2 2 3 3 3 4 4 5 6 7 7 6 6 10 12 12 11 11 10
14 14 12 10 8 7 9 8 7 5 5 3 2 3 3 3 1 3 3 3 4 6 6 6 6 5 5 7 9 12 12 11 11
14 13 13 12 9 8 8 7 6 5 7 3 2 1 2 3 4 2 3 3 3 4 5 6 5 4 4 6 10 11 11 10 11
15 15 14 10 9 8 9 9 7 5 5 4 3 2 1 2 2 3 4 3 3 3 3 4 5 5 5 5 8 9 9 9 11
Wind_Direction
118 116 112 110 109 104 103 103 100 100 99 91 83 79 78 74 69 72 66 77 73 74 64 62 58 54 53 52 49 53 48 45 41
120 117 115 114 110 107 107 102 100 101 101 91 84 83 77 79 73 70 85 88 85 73 75 66 67 66 67 64 63 58 57 53 47
122 120 117 116 111 111 109 102 100 101 94 90 89 81 71 71 73 76 78 81 82 82 80 80 79 79 74 69 66 63 59 56 50
123 121 118 114 111 112 114 107 107 100 89 86 86 76 64 69 71 80 97 91 93 91 86 83 80 70 65 61 56 51 53 51 50
118 113 115 115 111 110 111 111 111 100 89 87 83 77 63 67 74 72 104 107 97 94 88 78 72 65 58 52 51 48 49 45 44
114 114 117 125 118 115 113 117 112 101 88 84 82 71 62 53 43 100 91 99 103 93 82 73 68 64 60 56 54 53 51 49 46
117 113 106 103 108 114 115 117 112 99 93 87 78 68 59 51 78 111 114 105 103 90 82 77 71 65 61 55 57 57 53 48 52
121 117 112 112 110 110 113 114 111 106 98 90 86 71 66 51 57 72 105 111 98 92 88 83 79 69 61 54 51 51 47 49 50
130 128 125 117 119 117 116 116 116 105 98 96 91 78 67 50 47 49 79 93 99 96 91 87 79 73 65 57 54 52 55 48 54
137 134 131 123 125 126 120 121 120 113 105 97 94 87 79 71 60 58 62 68 79 82 84 77 74 71 64 56 54 53 56 50 52
142 138 133 127 130 127 127 127 121 113 115 104 96 89 81 77 71 67 62 63 64 74 79 78 70 66 55 52 55 53 50 58 50
146 141 138 129 129 125 122 118 117 114 107 104 100 97 91 85 79 77 80 78 69 75 77 73 67 56 54 56 57 54 50 45 55
148 144 139 140 136 136 133 132 119 117 118 112 97 96 97 95 92 88 84 82 89 86 81 74 66 55 56 54 54 57 53 48 51
152 149 144 147 142 141 141 132 130 129 119 112 99 91 90 93 97 95 90 87 91 98 93 92 77 61 56 55 49 47 50 49 42
156 150 150 152 145 146 143 138 126 135 133 119 101 87 85 89 87 91 89 81 95 96 92 98 84 70 58 53 48 42 39 40 39
162 156 158 162 157 159 153 133 140 132 146 125 109 82 76 87 81 85 94 88 76 83 89 102 91 73 58 45 44 39 40 34 41
168 166 169 167 154 157 162 154 144 126 178 145 136 158 150 107 66 75 78 83 79 82 95 101 93 80 61 40 37 37 30 29 37
174 173 170 169 168 167 171 167 162 152 187 208 145 152 181 149 96 67 59 80 81 93 100 96 87 82 64 36 33 27 20 13 17
178 176 178 176 177 171 178 177 173 155 175 177 194 84 136 164 164 144 104 84 90 99 107 109 92 73 56 43 34 25 22 20 23
181 180 183 182 180 180 177 174 185 184 173 170 158 160 137 121 143 163 163 117 80 89 93 101 101 84 57 33 26 26 29 29 42